Home > Time Zones > World Clock > Weather > U.S.A. > Erie > Past weeks

Flag for U.S.A. Weather past 2 weeks in Erie, Pennsylvania, U.S.A.

Now
30 °F

Overcast.


Feels Like: 26 °F
Forecast: 29 / 33 °F
Wind: 3 mph from Southwest

Location: Erie International Airport

Current Time: Dec 20, 2014 at 6:01:16 PM

Latest Report: Dec 20, 2014 at 4:51 PM


Visibility: 10 mi

Pressure: 30.29 "Hg

Humidity: 66%

Dew point: 20 °F

Location of ErieLocation

Historic Weather in Erie — Graph

°F

Erie temperature yesterday

Maximum temperature yesterday: 32 °F (at 12:00 AM)
Minimum temperature yesterday: 27 °F (at 9:51 AM)
Average temperature yesterday: 30 °F

Past Weeks' High & Low Weather Summary

 TemperatureHumidityPressure
High50 °F (Dec 16, 2:51 PM)93% (Dec 5, 11:51 PM)30.71 "Hg (Dec 5, 11:51 PM)
Low27 °F (Dec 19, 9:51 AM)27% (Dec 8, 8:51 AM)29.69 "Hg (Dec 16, 1:51 PM)
Average36 °F75%30.14 "Hg
* Reported Dec 5 4:51 PM — Dec 20 4:51 PM, Erie, Weather by CustomWeather, © 2014

Note: Actual official high and low records may vary slightly from our data, if they occured in-between our weather recording intervals... More about our weather records

Advertising

Erie weather history for previous 24 hours

 ConditionsComfort  
Time TempWeatherWind HumidityBarometerVisibility
4:51 PM
Dec 20
30 °FOvercast.3 mph66%30.29 "Hg10 mi
3:51 PM31 °FOvercast.No wind64%30.28 "Hg10 mi
2:51 PM31 °FOvercast.No wind64%30.28 "Hg10 mi
1:51 PM31 °FOvercast.3 mph64%30.28 "Hg10 mi
12:51 PM31 °FOvercast.No wind67%30.29 "Hg10 mi
11:51 AM30 °FOvercast.5 mph69%30.31 "Hg10 mi
10:51 AM31 °FOvercast.No wind64%30.32 "Hg10 mi
9:51 AM30 °FOvercast.6 mph66%30.32 "Hg10 mi
8:51 AM30 °FOvercast.5 mph66%30.31 "Hg10 mi
7:51 AM30 °FOvercast.6 mph66%30.33 "Hg10 mi
6:51 AM30 °FOvercast.5 mph66%30.32 "Hg10 mi
5:51 AM30 °FOvercast.5 mph64%30.32 "Hg10 mi
4:51 AM30 °FOvercast.5 mph66%30.30 "Hg10 mi
3:51 AM29 °FOvercast.3 mph66%30.29 "Hg10 mi
2:51 AM30 °FOvercast.7 mph64%30.29 "Hg10 mi
1:51 AM29 °FOvercast.8 mph66%30.27 "Hg10 mi
12:51 AM30 °FOvercast.7 mph69%30.27 "Hg10 mi
11:51 PM
Dec 19
30 °FMostly cloudy.8 mph72%30.29 "Hg10 mi
10:51 PM31 °FMostly cloudy.9 mph73%30.30 "Hg10 mi
9:51 PM31 °FMostly cloudy.9 mph73%30.31 "Hg10 mi
8:59 PM32 °FPassing clouds.8 mph64%30.28 "Hg10 mi
8:51 PM32 °FPassing clouds.9 mph64%30.31 "Hg10 mi
7:51 PM31 °FPassing clouds.9 mph64%30.30 "Hg10 mi
6:51 PM31 °FPassing clouds.7 mph61%30.28 "Hg10 mi
Weather by CustomWeather, © 2014

See weather overviewHow to use our weather pages